Theta_e
334 340 344 343 341 344 344 343 343 344 343 343 342 341 340 338 340 340 340 341 340 343 344 344 344 345 344 343 342 340 338 337 337 335 334 332 331 331 330 329 327 322 329
338 341 342 343 341 343 345 344 343 343 340 339 339 338 338 337 337 336 337 338 339 342 343 344 344 344 342 340 338 337 335 334 334 335 334 334 331 330 330 329 330 326 331
339 340 339 341 342 343 344 338 340 342 339 338 338 338 341 337 337 337 337 340 338 340 342 343 343 341 340 337 336 335 333 332 331 330 328 320 322 329 329 329 329 329 328
339 338 337 340 341 341 340 336 335 337 338 336 336 337 340 335 338 338 338 339 338 338 341 342 342 340 338 336 335 333 331 330 328 325 318 318 321 328 328 329 327 325 326
338 337 337 339 340 340 338 339 336 335 339 338 335 336 335 336 337 339 339 339 337 338 340 341 342 339 337 335 333 331 330 328 326 320 316 316 318 324 328 326 326 325 325
337 338 337 340 340 338 336 337 337 336 340 337 336 336 337 337 339 339 340 338 335 336 339 340 340 338 335 334 332 330 329 327 323 316 316 321 317 326 326 325 323 323 323
336 335 336 339 338 336 336 338 337 338 340 340 339 338 338 339 339 339 340 339 339 339 338 339 339 338 335 334 332 330 328 325 316 314 314 315 318 326 326 324 324 324 323
334 335 335 333 336 336 335 337 335 341 341 341 340 340 339 338 339 339 338 337 338 337 337 336 338 337 336 333 331 329 327 324 317 315 315 317 325 325 325 324 323 322 322
335 332 333 333 332 331 332 331 336 338 339 340 340 339 339 339 338 338 338 337 337 337 336 337 338 337 336 333 330 328 325 322 315 315 316 316 323 325 324 323 322 321 320
334 332 332 331 331 331 329 329 330 333 336 337 336 334 332 333 334 334 332 335 335 336 335 337 337 336 335 332 330 326 324 322 316 315 315 318 324 324 324 322 322 320 320
334 332 333 331 330 330 328 325 326 329 330 330 328 327 326 327 329 330 329 332 335 334 335 335 336 335 332 330 328 326 324 321 317 316 316 325 323 322 322 321 321 319 319
331 332 332 331 329 329 328 326 328 326 326 326 326 325 325 325 326 327 324 327 330 329 333 334 331 328 324 322 324 324 322 320 319 318 318 323 322 321 321 321 320 319 318
331 332 332 332 329 328 325 325 326 324 323 323 323 323 323 323 322 324 326 321 320 318 317 320 319 318 317 317 317 320 320 319 319 318 321 323 322 321 320 320 319 318 317
329 331 332 332 331 329 325 324 325 324 322 321 321 321 323 324 319 320 322 319 317 314 312 313 314 315 315 315 315 315 315 317 318 318 319 320 323 321 320 319 318 317 316
328 330 331 331 331 329 326 325 324 323 322 322 320 320 325 325 318 318 318 318 315 313 312 310 311 312 312 312 312 313 312 312 315 316 316 316 321 322 320 320 318 317 317
328 329 331 330 331 330 328 327 326 324 323 323 320 321 322 325 322 318 317 316 314 313 312 310 310 309 310 310 310 311 310 309 309 309 310 312 320 323 321 320 319 319 317
327 329 330 330 331 328 327 327 327 325 324 322 322 321 322 324 322 318 316 314 314 314 312 310 309 307 307 308 308 308 307 307 307 307 307 308 313 318 322 321 321 319 318
328 329 329 331 329 328 328 327 327 326 325 323 322 322 322 322 321 317 316 315 315 314 313 310 308 306 305 305 304 304 305 304 304 304 305 305 306 309 315 320 322 321 319
326 328 329 330 329 328 328 328 328 327 325 324 321 321 322 322 321 319 317 315 315 314 313 311 307 305 304 303 303 301 301 301 302 303 302 303 304 305 305 313 315 314 320
320 324 328 330 330 328 328 328 328 327 325 325 322 321 322 322 321 320 317 316 317 314 313 314 310 307 306 305 303 300 298 298 297 297 299 302 302 302 302 303 303 305 312
312 319 322 326 329 327 326 325 325 324 325 325 324 321 321 322 322 320 319 317 318 318 316 314 310 306 302 299 300 297 296 297 296 296 295 296 298 300 300 301 301 300 302
301 304 310 322 326 326 326 327 327 326 326 326 325 322 322 322 321 321 320 318 318 318 317 313 309 305 304 301 300 297 296 295 295 297 295 295 294 296 297 299 299 299 299
298 299 302 307 322 325 326 327 325 326 323 323 322 321 321 321 322 322 320 320 318 319 317 314 311 308 304 301 300 300 292 292 291 293 294 294 294 293 295 295 297 298 298
296 298 300 302 307 323 325 324 324 323 320 321 323 323 322 320 321 322 321 321 320 319 317 315 313 311 308 303 300 300 297 295 292 291 292 292 292 292 293 294 295 295 297
295 296 297 299 301 307 321 324 323 322 323 323 323 321 321 319 320 320 322 321 320 320 318 316 312 310 310 308 304 299 301 298 296 293 296 291 291 293 295 293 294 294 294
293 294 295 296 298 302 307 317 321 320 319 319 320 319 318 319 319 319 320 320 320 320 318 316 315 312 310 311 306 306 303 300 300 298 295 299 295 294 293 295 294 293 294
Wind_Speed
8 15 20 19 19 17 20 18 18 16 18 18 18 18 17 15 14 14 13 11 11 13 13 14 15 18 19 21 23 23 23 21 19 21 21 20 21 21 20 17 16 12 18
15 17 19 20 19 18 18 18 17 16 16 17 17 17 16 14 14 13 13 12 11 12 13 15 18 21 23 23 22 23 23 21 19 18 17 18 19 19 18 19 19 15 19
17 17 16 19 19 17 16 18 17 16 16 16 16 14 15 14 13 13 13 12 9 11 13 16 20 22 22 20 21 22 21 21 19 17 14 6 8 18 18 19 17 19 17
15 14 14 18 19 16 16 18 17 15 15 15 15 12 14 12 12 13 14 10 14 9 13 15 19 21 21 20 21 21 20 19 17 15 6 5 8 18 17 19 17 16 16
15 13 13 18 19 19 17 16 16 16 13 14 14 12 12 11 11 14 14 12 12 11 12 15 19 21 19 20 21 21 20 19 16 10 7 6 6 14 16 19 15 15 16
14 12 15 18 19 19 18 16 15 15 14 13 13 13 11 10 11 14 14 13 11 12 11 14 17 21 20 20 20 20 19 17 11 6 5 7 5 16 15 16 15 15 15
11 12 12 18 18 18 18 14 15 15 15 13 13 11 10 11 12 15 14 12 10 12 12 11 16 20 20 20 20 20 18 15 6 6 5 5 6 14 16 14 15 15 15
11 12 11 14 13 16 16 14 15 12 15 13 11 12 12 12 14 16 15 14 13 12 10 9 13 20 19 19 19 18 15 12 8 6 6 5 10 14 14 13 13 14 13
9 8 10 11 11 12 14 15 12 11 11 11 12 11 11 9 12 13 13 13 14 12 10 9 14 19 19 19 18 14 10 9 6 5 4 3 11 12 13 12 12 12 12
9 7 10 11 9 8 8 9 10 11 9 9 11 10 10 9 11 10 11 11 14 12 9 9 12 16 18 19 16 13 11 8 5 5 5 4 11 10 12 11 11 11 11
9 9 9 10 7 7 6 6 9 13 10 11 9 10 8 4 6 6 9 10 11 12 10 11 10 13 16 15 14 11 7 3 3 4 3 6 9 9 10 11 11 9 10
11 11 9 9 6 7 6 4 5 6 5 5 6 6 4 5 5 6 8 10 10 10 10 13 14 13 9 5 6 6 3 4 3 4 3 7 7 8 7 10 9 9 9
8 8 10 10 7 7 5 3 3 3 3 3 6 5 5 4 4 4 4 3 4 7 4 5 6 4 5 4 4 3 3 3 2 2 4 9 5 7 6 7 7 7 6
7 9 10 10 10 8 4 4 5 5 3 4 4 6 6 4 4 3 4 4 4 3 5 4 3 5 5 4 4 4 2 3 3 2 3 12 6 7 7 5 6 6 6
10 8 10 11 11 9 7 4 5 5 5 5 5 4 5 7 4 3 4 4 4 4 4 4 4 4 4 4 3 4 2 1 3 2 1 8 5 6 7 7 6 6 6
7 9 10 11 11 10 9 9 7 6 6 6 6 6 6 7 5 4 4 4 4 3 3 4 4 4 4 4 4 3 3 1 1 1 1 3 9 8 8 8 7 7 6
9 9 12 12 12 11 10 10 9 8 7 6 7 8 8 9 8 6 4 4 4 4 4 3 3 3 3 2 3 3 2 2 1 1 1 3 2 6 9 10 11 9 8
11 13 12 11 13 13 11 9 8 8 7 7 7 7 10 10 8 6 5 4 4 4 4 4 3 3 2 2 2 3 2 2 2 3 2 3 3 2 2 5 10 11 11
10 12 13 13 13 13 12 9 10 11 9 8 7 7 9 10 10 8 6 4 5 4 4 4 2 3 3 2 2 1 2 2 3 2 5 5 5 4 3 4 5 2 10
6 7 12 11 11 13 10 9 9 9 9 8 7 8 11 9 11 9 6 6 6 5 4 4 4 2 2 3 1 1 3 4 3 4 5 4 5 5 5 5 3 3 6
15 8 6 8 13 9 10 9 9 11 10 9 8 12 12 11 12 11 7 8 8 8 9 8 4 4 2 2 2 2 3 6 6 6 4 5 6 6 6 5 4 3 4
14 14 15 8 7 12 10 7 7 7 8 9 8 11 13 13 12 12 12 9 10 8 10 9 7 3 3 5 3 2 4 4 4 8 6 7 8 5 6 6 6 6 5
15 15 14 14 8 8 11 6 3 4 2 4 5 7 9 12 13 14 14 11 11 10 9 10 9 9 5 5 6 4 1 5 3 1 5 5 6 4 6 5 7 7 6
13 12 13 15 14 6 8 8 11 9 5 5 9 7 8 11 13 14 14 13 13 10 10 10 10 9 6 7 2 5 2 3 1 5 2 3 5 8 9 7 8 8 8
13 11 11 13 14 13 9 10 9 10 6 3 4 8 10 11 12 12 13 13 12 10 11 11 10 10 9 6 7 3 8 4 3 3 8 3 2 6 8 8 9 7 9
14 12 12 12 12 13 12 10 9 10 8 5 7 8 8 6 7 9 11 10 11 11 12 11 12 13 11 11 9 8 7 5 6 7 8 11 7 3 6 7 9 10 11
Wind_Direction
164 153 149 150 147 144 138 132 127 127 128 128 125 126 127 119 110 97 108 102 103 97 93 92 99 102 101 101 96 92 90 89 87 88 91 91 88 90 85 81 76 71 71
143 149 147 147 149 147 140 134 135 127 136 137 130 133 129 127 129 115 110 114 112 98 101 101 104 101 97 92 94 91 92 91 84 82 84 91 92 89 88 84 79 76 76
143 145 147 147 146 144 150 144 133 135 137 136 133 137 140 129 123 125 121 114 105 92 106 107 110 103 99 101 99 97 96 92 83 80 76 66 82 87 86 81 80 79 77
139 143 145 145 143 146 137 147 145 144 142 139 141 145 128 137 128 131 127 133 126 114 117 118 114 109 107 107 103 100 99 92 84 73 53 48 88 91 85 84 83 75 80
140 142 143 143 148 136 153 141 146 148 142 141 145 143 136 137 128 134 125 120 124 126 121 125 123 118 117 111 108 105 102 94 86 73 65 63 66 82 83 78 71 75 69
136 138 146 146 139 149 145 155 151 143 145 146 149 151 139 145 130 132 121 119 123 130 125 123 131 124 122 116 113 110 107 100 84 69 62 86 83 91 88 83 86 80 74
129 134 148 140 145 153 150 150 150 167 147 148 153 147 141 128 136 130 123 119 107 111 119 120 138 130 125 120 119 115 113 105 93 79 69 64 82 96 91 94 89 90 89
132 143 152 139 149 151 156 156 164 151 149 151 152 139 129 120 133 130 126 120 113 115 121 129 143 133 128 124 122 119 116 111 102 92 83 77 95 95 93 93 87 81 81
131 133 139 148 153 162 159 164 159 125 125 138 134 130 117 114 133 128 123 126 125 111 106 112 140 136 132 128 126 119 110 110 110 112 94 80 101 100 98 92 89 90 86
134 128 142 151 157 164 163 160 144 140 124 137 121 112 105 108 123 115 112 122 129 113 116 126 135 140 133 133 128 123 120 105 106 106 108 116 109 104 102 95 93 94 94
146 146 146 152 154 151 159 165 152 125 125 111 100 101 94 95 97 94 100 108 111 109 117 114 131 126 124 127 126 129 121 122 119 113 111 115 119 119 109 107 98 99 99
156 159 157 152 146 148 165 151 136 128 126 123 120 113 108 116 117 102 100 93 101 107 119 113 109 106 104 124 122 117 120 128 118 127 146 136 137 125 123 113 111 111 105
158 155 160 161 151 157 145 135 125 119 123 123 132 129 122 113 114 119 114 98 94 82 76 95 100 91 109 119 111 128 143 130 134 145 152 138 164 143 137 121 121 111 109
168 163 161 168 166 166 136 147 141 139 135 133 142 137 132 136 135 141 123 129 116 115 109 113 112 118 117 122 140 139 147 155 154 156 163 136 196 168 155 151 134 132 136
169 174 172 174 175 170 161 150 146 155 156 150 145 142 145 158 149 139 137 136 135 131 126 129 131 130 136 146 144 150 162 265 156 154 162 145 195 202 188 175 165 164 160
170 185 182 183 182 176 178 172 173 173 165 159 157 161 154 168 162 149 146 145 145 149 144 145 149 148 151 149 154 166 169 141 6 40 339 269 179 222 216 211 192 186 183
211 209 194 188 185 181 186 182 176 180 169 176 170 167 162 173 173 162 161 165 160 148 134 116 105 100 117 121 158 165 164 187 196 223 277 295 231 220 232 223 209 205 198
192 197 206 197 192 187 190 188 190 185 178 184 173 176 172 173 175 164 168 175 160 154 153 149 154 127 122 187 170 185 184 208 229 240 252 254 275 245 244 260 236 218 211
209 206 199 199 198 196 192 190 199 196 185 185 171 176 180 176 172 170 172 167 153 155 166 162 143 140 169 158 203 200 239 244 245 257 251 245 247 253 240 247 197 231 232
243 238 207 188 203 205 202 195 200 198 195 182 176 180 180 185 177 170 164 158 164 163 170 179 152 129 173 151 140 234 274 261 255 240 240 244 238 242 244 244 261 246 251
13 333 306 226 190 200 204 202 202 201 192 187 183 184 187 188 184 177 178 177 182 185 191 183 157 161 127 146 109 314 276 238 233 229 224 231 241 236 235 238 239 246 256
5 4 1 316 236 202 195 206 212 203 218 206 185 186 192 188 186 180 183 186 185 190 196 184 166 145 132 176 138 78 297 309 254 231 210 219 227 220 234 233 233 238 240
1 357 351 346 322 231 225 199 170 136 164 176 180 193 199 190 192 191 189 184 186 190 199 191 189 174 172 187 189 157 199 247 323 45 241 233 229 221 236 231 230 229 227
351 349 348 342 340 303 218 211 207 209 192 218 192 194 211 206 199 198 195 190 185 192 197 199 189 195 159 185 209 236 191 157 236 322 271 242 219 230 233 231 235 232 226
344 349 343 336 338 340 315 223 216 222 213 176 187 182 211 205 202 206 203 193 192 195 202 195 193 196 198 179 192 157 222 208 206 206 287 289 271 236 242 232 233 223 220
341 341 341 337 332 332 335 314 227 220 203 177 187 192 196 196 198 206 211 214 204 200 202 201 197 203 202 206 195 197 186 177 200 209 241 265 252 235 221 229 228 223 221